When you browse on this site, cookies collect data to enhance your experience and personalize the content and advertising you see.
Visit our Privacy Policy to learn more. By continuing to use the site, you agree to this use of cookies and data.
  • In Romania
  • List of Countries
  • For 7 days
  • Water Temperature
  • Satellite Maps
  • Weather Map
  • Weather Widgets
  • user-avatar
    Login

    Hourly Weather Tbilisi

    Today, 24 March, Sunday

    Time Temperature Precipitation Wind Pressure Humidity
    00:00 +5°C° 0.6 mm 1 mps 698 mmHg 75%
    01:00 +5°C° 0.4 mm 1 mps 698 mmHg 78%
    02:00 +4°C° 0.4 mm 2 mps 698 mmHg 80%
    03:00 +3°C° 0.4 mm 2 mps 698 mmHg 82%
    04:00 +3°C° 0.3 mm 2 mps 698 mmHg 82%
    05:00 +3°C° 0.3 mm 2 mps 698 mmHg 82%
    06:00 +3°C° 0.3 mm 2 mps 698 mmHg 82%
    07:00 +3°C° 0.1 mm 2 mps 698 mmHg 77%
    08:00 +2°C° 0.1 mm 3 mps 698 mmHg 72%
    09:00 +3°C° 0.1 mm 3 mps 698 mmHg 67%
    10:00 +4°C° 0.1 mm 3 mps 698 mmHg 63%
    11:00 +4°C° 0.1 mm 3 mps 698 mmHg 60%
    12:00 +5°C° 0.1 mm 4 mps 698 mmHg 57%
    13:00 +5°C° 0.1 mm 4 mps 698 mmHg 55%
    14:00 +6°C° 0.1 mm 4 mps 698 mmHg 53%
    15:00 +6°C° 0.1 mm 4 mps 698 mmHg 52%
    16:00 +5°C° 0 mm 3 mps 698 mmHg 54%
    17:00 +5°C° 0 mm 3 mps 698 mmHg 57%
    18:00 +4°C° 0 mm 3 mps 698 mmHg 59%
    19:00 +4°C° 0.2 mm 2 mps 698 mmHg 64%
    20:00 +4°C° 0.2 mm 2 mps 699 mmHg 68%
    21:00 +3°C° 0.2 mm 2 mps 699 mmHg 72%
    22:00 +3°C° 0.1 mm 2 mps 699 mmHg 74%
    23:00 +2°C° 0.1 mm 2 mps 699 mmHg 76%

    Tomorrow, 25 March, Monday

    Time Temperature Precipitation Wind Pressure Humidity
    00:00 +2°C° 0.1 mm 2 mps 699 mmHg 77%
    01:00 +2°C° 0 mm 2 mps 699 mmHg 78%
    02:00 +1°C° 0 mm 2 mps 699 mmHg 78%
    03:00 +1°C° 0 mm 2 mps 699 mmHg 78%
    04:00 -1°C° 0 mm 2 mps 698 mmHg 77%
    05:00 -1°C° 0 mm 2 mps 698 mmHg 77%
    06:00 -1°C° 0 mm 2 mps 698 mmHg 76%
    07:00 +2°C° 0 mm 2 mps 698 mmHg 69%
    08:00 +5°C° 0 mm 1 mps 698 mmHg 63%
    09:00 +6°C° 0 mm 1 mps 698 mmHg 56%
    10:00 +8°C° 0 mm 1 mps 698 mmHg 54%
    11:00 +9°C° 0 mm 1 mps 697 mmHg 52%
    12:00 +10°C° 0 mm 1 mps 697 mmHg 50%
    13:00 +10°C° 0 mm 1 mps 697 mmHg 53%
    14:00 +9°C° 0 mm 2 mps 696 mmHg 55%
    15:00 +9°C° 0 mm 2 mps 696 mmHg 57%
    16:00 +8°C° 0 mm 2 mps 696 mmHg 61%
    17:00 +8°C° 0 mm 2 mps 697 mmHg 65%
    18:00 +7°C° 0 mm 2 mps 697 mmHg 68%
    19:00 +7°C° 0.1 mm 2 mps 698 mmHg 73%
    20:00 +6°C° 0.1 mm 2 mps 698 mmHg 77%
    21:00 +5°C° 0.1 mm 2 mps 699 mmHg 82%
    22:00 +5°C° 0.2 mm 2 mps 699 mmHg 84%
    23:00 +6°C° 0.2 mm 1 mps 699 mmHg 86%

    Day after tomorrow, 26 March, Tuesday

    Time Temperature Precipitation Wind Pressure Humidity
    00:00 +5°C° 0.2 mm 1 mps 699 mmHg 88%
    01:00 +5°C° 0.1 mm 1 mps 699 mmHg 89%
    02:00 +5°C° 0.1 mm 1 mps 699 mmHg 89%
    03:00 +5°C° 0.1 mm 1 mps 699 mmHg 90%
    04:00 +5°C° 0.1 mm 1 mps 699 mmHg 90%
    05:00 +4°C° 0.1 mm 1 mps 699 mmHg 91%
    06:00 +4°C° 0.1 mm 1 mps 700 mmHg 92%
    07:00 +5°C° 0 mm 1 mps 700 mmHg 87%
    08:00 +6°C° 0 mm 1 mps 700 mmHg 82%
    09:00 +6°C° 0 mm 2 mps 699 mmHg 77%
    10:00 +7°C° 0 mm 2 mps 699 mmHg 74%
    11:00 +7°C° 0 mm 2 mps 699 mmHg 70%
    12:00 +8°C° 0 mm 2 mps 698 mmHg 67%
    13:00 +9°C° 0 mm 2 mps 698 mmHg 65%
    14:00 +9°C° 0 mm 2 mps 698 mmHg 64%
    15:00 +9°C° 0 mm 3 mps 697 mmHg 63%
    16:00 +9°C° 0 mm 2 mps 697 mmHg 65%
    17:00 +8°C° 0 mm 2 mps 698 mmHg 67%
    18:00 +9°C° 0 mm 1 mps 698 mmHg 69%
    19:00 +9°C° 0.1 mm 1 mps 698 mmHg 71%
    20:00 +8°C° 0.1 mm 1 mps 699 mmHg 73%
    21:00 +8°C° 0.1 mm 1 mps 699 mmHg 75%
    22:00 +7°C° 0 mm 1 mps 699 mmHg 77%
    23:00 +7°C° 0 mm 1 mps 699 mmHg 79%

    27 March, Wednesday

    Time Temperature Precipitation Wind Pressure Humidity
    00:00 +6°C° 0 mm 1 mps 698 mmHg 81%
    01:00 +5°C° 0 mm 0 mps 698 mmHg 82%
    02:00 +5°C° 0 mm 0 mps 698 mmHg 84%
    03:00 +4°C° 0 mm 0 mps 698 mmHg 86%
    04:00 +4°C° 0 mm 0 mps 698 mmHg 87%
    05:00 +5°C° 0 mm 1 mps 698 mmHg 88%
    06:00 +4°C° 0 mm 1 mps 698 mmHg 89%
    07:00 +6°C° 0 mm 1 mps 698 mmHg 81%
    08:00 +8°C° 0 mm 1 mps 698 mmHg 73%
    09:00 +8°C° 0 mm 2 mps 698 mmHg 65%
    10:00 +10°C° 0 mm 2 mps 698 mmHg 59%
    11:00 +12°C° 0 mm 3 mps 698 mmHg 53%
    12:00 +13°C° 0 mm 4 mps 698 mmHg 47%
    13:00 +14°C° 0 mm 5 mps 698 mmHg 46%
    14:00 +14°C° 0 mm 5 mps 698 mmHg 45%
    15:00 +14°C° 0 mm 6 mps 698 mmHg 45%
    16:00 +13°C° 0 mm 6 mps 698 mmHg 50%
    17:00 +10°C° 0 mm 5 mps 698 mmHg 55%
    18:00 +9°C° 0 mm 5 mps 699 mmHg 61%
    19:00 +8°C° 0 mm 5 mps 699 mmHg 65%
    20:00 +7°C° 0 mm 4 mps 700 mmHg 70%
    21:00 +5°C° 0 mm 4 mps 700 mmHg 74%
    22:00 +5°C° 0 mm 3 mps 700 mmHg 76%
    23:00 +4°C° 0 mm 3 mps 700 mmHg 78%

    28 March, Thursday

    Time Temperature Precipitation Wind Pressure Humidity
    00:00 +4°C° 0 mm 3 mps 701 mmHg 80%
    01:00 +4°C° 0 mm 3 mps 701 mmHg 81%
    02:00 +5°C° 0 mm 2 mps 701 mmHg 82%
    03:00 +5°C° 0 mm 2 mps 701 mmHg 83%
    04:00 +4°C° 0 mm 2 mps 701 mmHg 83%
    05:00 +4°C° 0 mm 2 mps 702 mmHg 84%
    06:00 +4°C° 0 mm 2 mps 702 mmHg 85%
    07:00 +5°C° 0 mm 2 mps 702 mmHg 78%
    08:00 +6°C° 0 mm 2 mps 702 mmHg 72%
    09:00 +7°C° 0 mm 3 mps 703 mmHg 66%
    10:00 +8°C° 0 mm 3 mps 703 mmHg 61%
    11:00 +8°C° 0 mm 3 mps 703 mmHg 56%
    12:00 +9°C° 0 mm 3 mps 703 mmHg 52%
    13:00 +10°C° 0 mm 3 mps 702 mmHg 50%
    14:00 +10°C° 0 mm 3 mps 702 mmHg 49%
    15:00 +10°C° 0 mm 3 mps 702 mmHg 47%
    16:00 +9°C° 0 mm 2 mps 702 mmHg 51%
    17:00 +8°C° 0 mm 2 mps 702 mmHg 54%
    18:00 +8°C° 0 mm 2 mps 703 mmHg 58%
    19:00 +7°C° 0.1 mm 2 mps 703 mmHg 62%
    20:00 +6°C° 0.1 mm 2 mps 703 mmHg 65%
    21:00 +5°C° 0.1 mm 2 mps 703 mmHg 69%
    22:00 +6°C° 0.1 mm 1 mps 703 mmHg 71%
    23:00 +6°C° 0.1 mm 1 mps 703 mmHg 73%

    29 March, Friday

    Time Temperature Precipitation Wind Pressure Humidity
    00:00 +5°C° 0.1 mm 1 mps 703 mmHg 75%
    01:00 +5°C° 0.3 mm 1 mps 703 mmHg 76%
    02:00 +5°C° 0.3 mm 1 mps 703 mmHg 78%
    03:00 +5°C° 0.3 mm 1 mps 703 mmHg 80%
    04:00 +4°C° 0.3 mm 1 mps 703 mmHg 81%
    05:00 +4°C° 0.3 mm 1 mps 703 mmHg 83%
    06:00 +4°C° 0.3 mm 1 mps 703 mmHg 84%
    07:00 +4°C° 0.2 mm 1 mps 703 mmHg 80%
    08:00 +5°C° 0.2 mm 1 mps 703 mmHg 75%
    09:00 +5°C° 0.2 mm 1 mps 703 mmHg 71%
    10:00 +6°C° 0.1 mm 1 mps 702 mmHg 67%
    11:00 +7°C° 0.1 mm 1 mps 702 mmHg 62%
    12:00 +9°C° 0.1 mm 1 mps 702 mmHg 58%
    13:00 +9°C° 0.1 mm 1 mps 701 mmHg 56%
    14:00 +9°C° 0.1 mm 1 mps 701 mmHg 54%
    15:00 +10°C° 0.1 mm 1 mps 700 mmHg 53%
    16:00 +9°C° 0 mm 1 mps 700 mmHg 54%
    17:00 +8°C° 0 mm 1 mps 700 mmHg 56%
    18:00 +8°C° 0 mm 1 mps 700 mmHg 58%
    19:00 +7°C° 0 mm 1 mps 701 mmHg 61%
    20:00 +6°C° 0 mm 1 mps 701 mmHg 64%
    21:00 +5°C° 0 mm 1 mps 701 mmHg 66%
    22:00 +4°C° 0 mm 1 mps 701 mmHg 69%
    23:00 +3°C° 0 mm 2 mps 701 mmHg 72%
    Show more